Date String (YYYY-MM-DD hh:mm:ss) UTC,Instrument flags,absolute air pressure of the measurement (hPa),sample flow rate (lpm),inlet stack bypass flow (lpm),air temperature of the measurement (°C),ambient temperature measured by the external sensor (°C),aerosol sample conditioner tube jacket temperature (°C),OPC LED temperature (°C),internal box temperature (°C),relative humidity of the measurement (%),span deviation,mass concentration of particles derived from Lorenz-Mie calculation of OPC scattering (μg/m³),mass concentration of particles derived from Lorenz-Mie calculation of OPC scattering (μg/m³),mass concentration of particles derived from Lorenz-Mie calculation of OPC scattering (μg/m³)
DateTimeUTC,F1_M11,P_M11,Q1_M11,Q2_M11,T1_M11,T2_M11,T3_M11,T4_M11,T5_M11,U1_M11,ZSPAN_M11,X0_M11,X2_M11,X1_M11
2024-04-21 13:00:00,SystemResetWarning,0836.6,5.00,000.00,018.4,017.9,000.0,026.9,020.2,023.6,0001.2,0011.22,0008.34,0008.09
2024-04-21 13:01:00,SystemResetWarning,0836.6,5.00,000.00,018.4,018.0,000.0,026.9,020.2,023.5,0001.2,0011.36,0008.44,0008.18
2024-04-21 13:02:00,SystemResetWarning,0836.6,5.00,000.00,018.4,018.0,000.0,026.9,020.2,023.4,0001.4,0011.42,0008.49,0008.23
2024-04-21 13:03:00,SystemResetWarning,0836.6,5.01,000.00,018.4,018.0,000.0,026.9,020.2,023.4,0001.3,0011.35,0008.49,0008.22
2024-04-21 13:04:00,SystemResetWarning,0836.6,5.00,000.00,018.4,018.0,000.0,026.9,020.2,023.4,0001.4,0011.40,0008.53,0008.26
2024-04-21 13:05:00,SystemResetWarning,0836.6,4.99,000.00,018.4,018.0,000.0,026.9,020.2,023.4,0001.3,0011.34,0008.49,0008.24
2024-04-21 13:06:00,SystemResetWarning,0836.6,5.00,000.00,018.5,018.0,000.0,026.9,020.2,023.4,0001.4,0011.30,0008.47,0008.21
2024-04-21 13:07:00,SystemResetWarning,0836.7,5.00,000.00,018.5,018.0,000.0,026.9,020.2,023.4,0001.4,0011.28,0008.46,0008.19
2024-04-21 13:08:00,SystemResetWarning,0836.6,5.00,000.00,018.5,018.0,000.0,026.9,020.2,023.4,0001.3,0011.28,0008.43,0008.16
2024-04-21 13:09:00,SystemResetWarning,0836.6,5.00,000.00,018.5,018.0,000.0,026.9,020.2,023.4,0001.4,0011.36,0008.37,0008.09
2024-04-21 13:10:00,SystemResetWarning,0836.6,5.00,000.00,018.5,018.0,000.0,026.9,020.2,023.4,0001.3,0011.52,0008.27,0007.99
2024-04-21 13:11:00,SystemResetWarning,0836.7,5.00,000.00,018.5,018.0,000.0,026.9,020.2,023.4,0001.2,0011.45,0008.19,0007.91
2024-04-21 13:12:00,SystemResetWarning,0836.6,4.99,000.00,018.5,018.0,000.0,026.9,020.2,023.4,0001.4,0011.35,0008.11,0007.84
2024-04-21 13:13:00,SystemResetWarning,0836.6,4.99,000.00,018.5,018.0,000.0,026.9,020.2,023.3,0001.3,0011.28,0008.08,0007.81
2024-04-21 13:14:00,SystemResetWarning,0836.6,4.99,000.00,018.5,018.0,000.0,026.9,020.2,023.3,0001.2,0011.23,0008.07,0007.83
2024-04-21 13:15:00,SystemResetWarning,0836.7,5.00,000.00,018.5,018.0,000.0,026.9,020.2,023.4,0001.0,0011.16,0008.02,0007.79
2024-04-21 13:16:00,SystemResetWarning,0836.7,4.99,000.00,018.5,018.0,000.0,026.9,020.2,023.4,0001.0,0011.26,0008.06,0007.83
2024-04-21 13:17:00,SystemResetWarning,0836.7,5.01,000.00,018.5,018.0,000.0,026.9,020.2,023.5,0001.1,0011.33,0008.09,0007.86
2024-04-21 13:18:00,SystemResetWarning,0836.7,5.01,000.00,018.5,018.0,000.0,027.0,020.2,023.4,0000.9,0011.43,0008.12,0007.88
2024-04-21 13:19:00,SystemResetWarning,0836.7,5.00,000.00,018.5,018.0,000.0,027.0,020.2,023.5,0000.6,0011.76,0008.13,0007.89
2024-04-21 13:20:00,SystemResetWarning,0836.7,5.00,000.00,018.5,018.0,000.0,027.0,020.2,023.6,0000.5,0011.86,0008.14,0007.90
2024-04-21 13:21:00,SystemResetWarning,0836.7,4.99,000.00,018.5,018.0,000.0,027.0,020.3,023.6,0000.4,0011.54,0008.15,0007.92
2024-04-21 13:22:00,SystemResetWarning,0836.7,5.00,000.00,018.5,018.0,000.0,027.0,020.3,023.6,0000.3,0011.54,0008.19,0007.96
2024-04-21 13:23:00,SystemResetWarning,0836.7,5.00,000.00,018.5,018.0,000.0,027.0,020.2,023.6,0000.0,0011.64,0008.24,0008.01
2024-04-21 13:24:00,SystemResetWarning,0836.7,5.00,000.00,018.5,018.0,000.0,027.0,020.3,024.3,-000.1,0011.67,0008.26,0008.02
2024-04-21 13:25:00,SystemResetWarning,0836.7,5.01,000.00,018.5,018.0,000.0,027.0,020.3,024.7,-000.1,0011.67,0008.24,0007.99
2024-04-21 13:26:00,SystemResetWarning,0836.7,5.01,000.00,018.5,018.0,000.0,027.0,020.3,024.0,-000.1,0011.77,0008.28,0008.02
2024-04-21 13:27:00,SystemResetWarning,0836.7,5.01,000.00,018.5,018.1,000.0,027.0,020.3,023.9,-000.0,0011.76,0008.30,0008.03
2024-04-21 13:28:00,SystemResetWarning,0836.8,5.00,000.00,018.5,018.1,000.0,027.0,020.3,023.8,0000.2,0011.77,0008.33,0008.07
2024-04-21 13:29:00,SystemResetWarning,0836.8,5.00,000.00,018.5,018.1,000.0,027.0,020.3,023.8,0000.2,0011.66,0008.33,0008.08
2024-04-21 13:30:00,SystemResetWarning,0836.8,5.00,000.00,018.5,018.1,000.0,027.0,020.3,023.8,0000.5,0011.51,0008.37,0008.14
2024-04-21 13:31:00,SystemResetWarning,0836.8,5.00,000.00,018.5,018.1,000.0,027.0,020.3,023.9,0000.2,0011.22,0008.41,0008.20
2024-04-21 13:32:00,SystemResetWarning,0836.8,5.00,000.00,018.5,018.1,000.0,027.0,020.3,023.9,0000.1,0011.28,0008.45,0008.24
2024-04-21 13:33:00,SystemResetWarning,0836.8,5.00,000.00,018.5,018.1,000.0,027.0,020.3,023.9,0000.0,0011.33,0008.49,0008.28
2024-04-21 13:34:00,SystemResetWarning,0836.7,5.00,000.00,018.5,018.1,000.0,027.0,020.3,024.1,-000.1,0011.31,0008.50,0008.31
2024-04-21 13:35:00,SystemResetWarning,0836.7,5.01,000.00,018.5,018.1,000.0,027.0,020.3,024.2,-000.1,0011.35,0008.53,0008.34
2024-04-21 13:36:00,SystemResetWarning,0836.7,5.01,000.00,018.5,018.1,000.0,027.0,020.3,024.1,0000.1,0011.50,0008.64,0008.43
2024-04-21 13:37:00,SystemResetWarning,0836.7,5.01,000.00,018.5,018.1,000.0,027.0,020.3,024.2,0000.3,0012.87,0008.78,0008.57
2024-04-21 13:38:00,SystemResetWarning,0836.7,5.00,000.00,018.5,018.1,000.0,027.0,020.3,024.2,0000.4,0013.21,0008.94,0008.73
2024-04-21 13:39:00,SystemResetWarning,0836.6,4.99,000.00,018.5,018.1,000.0,027.0,020.3,024.3,0000.2,0013.53,0009.15,0008.93
2024-04-21 13:40:00,SystemResetWarning,0836.6,4.99,000.00,018.5,018.1,000.0,027.0,020.3,024.3,0000.4,0013.73,0009.27,0009.03
2024-04-21 13:41:00,SystemResetWarning,0836.6,5.00,000.00,018.5,018.1,000.0,027.0,020.3,024.4,0000.3,0013.90,0009.34,0009.08
2024-04-21 13:42:00,SystemResetWarning,0836.6,5.01,000.00,018.5,018.1,000.0,027.0,020.3,024.5,0000.3,0014.05,0009.44,0009.16
2024-04-21 13:43:00,SystemResetWarning,0836.6,5.00,000.00,018.5,018.1,000.0,027.0,020.3,024.6,0000.4,0014.33,0009.55,0009.25
2024-04-21 13:44:00,SystemResetWarning,0836.6,5.00,000.00,018.5,018.1,000.0,027.0,020.3,024.6,0000.5,0014.52,0009.66,0009.36
2024-04-21 13:45:00,SystemResetWarning,0836.6,4.99,000.00,018.6,018.1,000.0,027.0,020.3,024.6,0000.6,0014.65,0009.76,0009.47
2024-04-21 13:46:00,SystemResetWarning,0836.6,4.99,000.00,018.6,018.1,000.0,027.0,020.3,024.5,0000.8,0014.84,0009.89,0009.60
2024-04-21 13:47:00,SystemResetWarning,0836.6,5.01,000.00,018.6,018.1,000.0,027.0,020.3,024.5,0000.8,0015.10,0010.06,0009.75
2024-04-21 13:48:00,SystemResetWarning,0836.7,5.01,000.00,018.6,018.1,000.0,027.0,020.3,024.4,0000.7,0014.12,0010.16,0009.84
2024-04-21 13:49:00,SystemResetWarning,0836.6,5.01,000.00,018.6,018.1,000.0,027.0,020.3,024.3,0000.7,0014.05,0010.19,0009.86
2024-04-21 13:50:00,SystemResetWarning,0836.7,4.99,000.00,018.6,018.2,000.0,027.0,020.3,024.2,0000.7,0014.05,0010.19,0009.85
2024-04-21 13:51:00,SystemResetWarning,0836.8,4.99,000.00,018.6,018.2,000.0,027.0,020.3,024.2,0000.7,0014.45,0010.40,0010.04
2024-04-21 13:52:00,SystemResetWarning,0836.7,5.01,000.00,018.6,018.2,000.0,027.0,020.4,024.2,0000.6,0015.60,0010.62,0010.25
2024-04-21 13:53:00,SystemResetWarning,0836.7,5.01,000.00,018.6,018.2,000.0,027.0,020.4,024.2,0000.5,0016.24,0010.80,0010.40
2024-04-21 13:54:00,SystemResetWarning,0836.7,5.01,000.00,018.6,018.2,000.0,027.0,020.4,024.2,0000.5,0016.62,0010.93,0010.53
2024-04-21 13:55:00,SystemResetWarning,0836.7,4.99,000.00,018.6,018.2,000.0,027.0,020.4,024.2,0000.5,0016.69,0011.00,0010.61
2024-04-21 13:56:00,SystemResetWarning,0836.6,4.99,000.00,018.6,018.2,000.0,027.0,020.4,024.2,0000.6,0017.24,0011.09,0010.68
2024-04-21 13:57:00,SystemResetWarning,0836.7,5.02,000.00,018.6,018.2,000.0,027.0,020.4,024.2,0000.4,0017.84,0011.20,0010.79
2024-04-21 13:58:00,SystemResetWarning,0836.7,5.01,000.00,018.6,018.2,000.0,027.0,020.4,024.1,0000.4,0018.06,0011.27,0010.85
2024-04-21 13:59:00,SystemResetWarning,0836.8,5.00,000.00,018.6,018.2,000.0,027.1,020.4,024.1,0000.2,0018.13,0011.33,0010.93
